Location: *
(37.9500°N, 27.3666°E)
Time: 14:20:31
(UTC+00:00)

CSL-04 Rocket - Pass Details

Date: 24 October 2021
Orbit: 805 x 861 km, 98.9° (Epoch: 06 December)

Event Time Altitude Azimuth Distance (km) Brightness Sun altitude
Exits shadow 17:14:24 44° 55° (NE) 1,167 4.0 -23.0°
Drops below altitude 10° 17:19:10 10° 359° (N) 2,505 6.2 -23.9°
Sets 17:21:38 0° 354° (N) 3,445 7.0 -24.4°
